Showing default

INTELSAT 1-F1, 1317

Orbit data source: Space-Track

INTELSAT 1-F1, 1317 is a payload satellite owned by INTELSAT (US) in GEO that was launched on Tue, 06 Apr 1965 UTC via a THOR DELTA D launch vehicle from the Air Force Eastern Test Range (AFETR). Payload-class satellites include a variety of spacecraft equipped with specific instruments for various scientific and technological missions. These include communications satellites like Starlink; space stations such as the ISS; scientific satellites like the Hubble; Earth observation satellites from companies like Planet Labs, Umbra, and HawkEye 360; GPS; miniature CubeSats for education and research; and military/defense satellites.

Loading next visibility...
Identifier
1317, 1965-028A
Orbit
GEO
Country
Flag of USUS / ITSO
Related business
Manufacturer
Hughes
Mission
Non-operational spacecraft
Bus & Motor
HS-303A, STARFINDER
Mass
68 kg wet, 30 kg dry
Launch date (UTC)
1965-04-06 (61 years ago)
Launch vehicle
THOR DELTA D
Launch site
Air Force Eastern Test Range (AFETR)
Object type
Payload
Rocket body
Debris
Shape & HBR
Unknown
Radar Cross Section
Medium (>0.1 m² and <1 m²)

Expand to show TLE details & history
Last TLE update: 17 hours ago

TLE from 17 hours ago
0 INTELSAT 1-F1
1 01317U 65028A   26111.55446212 -.00000080  00000-0  00000-0 0  9992
2 01317   7.0206  64.3013 0004874 156.6811  82.7286  1.00178347126606
Epoch: 2026-04-21T13:18Z
TLE epoch observation values (Epoch: 2026-04-21T13:18:25.527Z)
Latitude
-6.03892°
Longitude
-105.64997°
Altitude
35,810.749 km
Speed
3.074 km/s
True Right ascension
20h 14m 20s
True Declination
-6° 01' 58"
Sunlit
Object was in daylight at epoch
Visualization orbit readout
Latitude
Unknown
Longitude
Unknown
Altitude
Unknown
Speed
Unknown
Apparent Right ascension
Unknown
Apparent Declination
Unknown
Sunlit
N/A
Visualization observer readout
Local Sidereal Time
12:59:44
Azimuth
Unknown
Elevation
Unknown
Doppler factor
Unknown
Orbital elements
Apogee altitude
35,834.42 km
Perigee altitude
35,793.291 km
Semi-major axis
42,191.993 km
Eccentricity
0.00049
Inclination
7.0206°
RAAN
64.3013°
Arg. of periapsis
156.6811°
True anomaly
82.78401°
Mean anomaly
82.7286°
Eccentric anomaly
82.7563°
Mean motion
0.25044 °/min
Orbital period
1,437.49 mins
BSTAR
0
Loading maneuver chart data...
Computing Atmospheric mass density...
Loading historical data...
Loading historical data...
Loading historical data...
Loading historical data...
Loading historical data...
Loading historical data...
Loading historical data...
Other satellites on launch #28 in the year 1965 (1965-04-06 UTC)

Documentation

Showing up to 5 results
|